C/2020 R2 ( PanSTARRS )

Japanese version
Home page
Updated on September 16, 2020

---------------------------------------------------------------------

* Profile

Discovery Date September 12, 2020
Magnitude 20.5 mag
Discoverer Pan-STARRS2 1.8-m Ritchey-Chretien reflector (Haleakala)

* Orbital Elements

T 2022 Feb. 24.24948 TT                                 Rudenko                 
q   4.6903977            (2000.0)            P               Q                  
z  +0.0021776      Peri.  211.73888     +0.73925603     -0.64035095             
                   Node   195.08091     +0.64954363     +0.59632144             
e   0.9897864      Incl.   53.24155     -0.17774585     -0.48409855             
From 30 observations 2020 Aug. 18-Sept. 13.                                     

* Magnitudes Graph

        m1 = 8.5 + 5 log d + 10.0 log r

---------------------------------------------------------------------

The orbital elements are published on M.P.E.C. 2020-R119.
The magnitudes graphs are made with Comet for Windows.

---------------------------------------------------------------------

Copyright(C) Seiichi Yoshida (comet@aerith.net). All rights reserved.